Location: Tel Aviv
(32.0670°N, 34.7670°E)
Time: 01:44:50
(UTC+03:00)

AO-7 - Pass Details

Date: 19 September 2024
Orbit: 1440 x 1458 km, 102.0° (Epoch: 10 October)

Event Time Altitude Azimuth Distance (km) Brightness Sun altitude
Rises 05:00:57 0° 31° (NNE) 4,565 ? -18.9°
Reaches altitude 10° 05:04:24 10° 44° (NE) 3,581 ? -18.2°
Maximum altitude 05:11:03 26° 98° (E) 2,544 ? -16.9°
Drops below altitude 10° 05:17:38 10° 151° (SSE) 3,558 ? -15.5°
Sets 05:21:01 0° 163° (SSE) 4,530 ? -14.8°
